Location: Hains Lake
(37.8540°N, 99.8578°W)
Time: 03:15:45
(UTC+00:00)

Transit 2A - Pass Details

Date: 24 April 2021
Orbit: 602 x 957 km, 66.7° (Epoch: 14 May)

Event Time Altitude Azimuth Distance (km) Brightness Sun altitude
Rises 22:42:04 0° 316° (NW) 2,916 9.5 30.7°
Reaches altitude 10° 22:44:38 10° 302° (WNW) 2,042 9.1 30.2°
Maximum altitude 22:48:16 23° 250° (WSW) 1,411 9.5 29.5°
Drops below altitude 10° 22:52:06 10° 198° (SSW) 2,177 8.8 28.8°
Sets 22:54:57 0° 185° (S) 3,160 9.3 28.2°
